SCP
0 0 0 0 0 0 0 0 0 0 0 0 0 0 0 0 0 0 0 0 0 0 0 0 0 0 0 0 0 0 0 0 0 0 0 0 0 0 0 0 0 0 0
0 0 0 0 0 0 0 0 0 0 0 0 0 0 0 0 0 0 0 0 0 0 0 0 0 0 0 0 0 0 0 0 0 0 0 0 0 0 0 0 0 0 0
0 0 0 0 0 0 0 0 0 0 0 0 0 0 0 0 0 0 0 0 0 0 0 0 0 0 0 0 0 0 0 0 0 0 0 0 0 0 0 0 0 0 0
0 0 0 0 0 0 0 0 0 0 0 0 0 0 0 0 0 0 0 0 0 0 0 0 0 0 0 0 0 0 0 0 0 0 0 0 0 0 0 0 0 0 0
0 0 0 0 0 0 0 0 0 0 0 0 0 0 0 0 0 0 0 0 0 0 0 0 0 0 0 0 0 0 0 0 0 0 0 0 0 0 0 0 0 0 0
0 0 0 0 0 0 0 0 0 0 0 0 0 0 0 0 0 0 0 0 0 0 0 0 0 0 0 0 0 0 0 0 0 0 0 0 0 0 0 0 0 0 0
0 0 0 0 0 0 0 0 0 0 0 0 0 0 0 0 0 0 0 0 0 0 0 0 0 0 0 0 0 0 0 0 0 0 0 0 0 0 0 0 0 0 0
0 0 0 0 0 0 0 0 0 0 0 0 0 0 0 0 0 0 0 0 0 0 0 0 0 0 0 0 0 0 0 0 0 0 0 0 0 0 0 0 0 0 0
0 0 0 0 0 0 0 0 0 0 0 0 0 0 0 0 0 0 0 0 0 0 0 0 0 0 0 0 0 0 0 0 0 0 0 0 0 0 0 0 0 0 0
0 0 0 0 0 0 0 0 0 0 0 0 0 0 0 0 0 0 0 0 0 0 0 0 0 0 0 0 0 0 0 0 0 0 0 0 0 0 0 0 0 0 0
0 0 0 0 0 0 0 0 0 0 0 0 0 0 0 0 0 0 0 0 0 0 0 0 0 0 0 0 0 0 0 0 0 0 0 0 0 0 0 0 0 0 0
0 0 0 0 0 0 0 0 0 0 0 0 0 0 0 0 0 0 0 0 0 0 0 0 0 0 0 0 0 0 0 0 0 0 0 0 0 0 0 0 0 0 0
0 0 0 0 0 0 0 0 0 0 0 0 0 0 0 0 0 0 0 0 0 0 0 0 0 0 0 0 0 0 0 0 0 0 0 0 0 0 0 0 0 0 0
0 0 0 0 0 0 0 0 0 0 0 0 0 0 0 0 0 0 0 0 0 0 0 0 0 0 0 0 0 0 0 0 0 0 0 0 0 0 0 0 0 0 0
0 0 0 0 0 0 0 0 0 0 0 0 0 0 0 0 0 0 0 0 0 0 0 0 0 0 0 0 0 0 0 0 0 0 0 0 0 0 0 0 0 0 0
0 0 0 0 0 0 0 0 0 0 0 0 0 0 0 0 0 0 0 0 0 0 0 0 0 0 0 0 0 0 0 0 0 0 0 0 0 0 0 0 0 0 0
0 0 0 0 0 0 0 0 0 0 0 0 0 0 0 0 0 0 0 0 0 0 0 0 0 0 0 0 0 0 0 0 0 0 0 0 0 0 0 0 0 0 0
0 0 0 0 0 0 0 0 0 0 0 0 0 0 0 0 0 0 0 0 0 0 0 0 0 0 0 0 0 0 0 0 0 0 0 0 0 0 0 0 0 0 0
0 0 0 0 0 0 0 0 0 0 0 0 0 0 0 0 0 0 0 0 0 0 0 0 0 0 0 0 0 0 0 0 0 0 0 0 0 0 0 0 0 0 0
0 0 0 0 0 0 0 0 0 0 0 0 0 0 0 0 0 0 0 0 0 0 0 0 0 0 0 0 0 0 0 0 0 0 0 0 0 0 0 0 0 0 0
0 0 0 0 0 0 0 0 0 0 0 0 0 0 0 0 0 0 0 0 0 0 0 0 0 0 0 0 0 0 0 0 0 0 0 0 0 0 0 0 0 0 0
0 0 0 0 0 0 0 0 0 0 0 0 0 0 0 0 0 0 0 0 0 0 0 0 0 0 0 0 0 0 0 0 0 0 0 0 0 0 0 0 0 0 0
0 0 0 0 0 0 0 0 0 0 0 0 0 0 0 0 0 0 0 0 0 0 0 0 0 0 0 0 0 0 0 0 0 0 0 0 0 0 0 0 0 0 0
0 0 0 0 0 0 0 0 0 0 0 0 0 0 0 0 0 0 0 0 0 0 0 0 0 0 0 0 0 0 0 0 0 0 0 0 0 0 0 0 0 0 0
0 0 0 0 0 0 0 0 0 0 0 0 0 0 0 0 0 0 0 0 0 0 0 0 0 0 0 0 0 0 0 0 0 0 0 0 0 0 0 0 0 0 0
0 0 0 0 0 0 0 0 0 0 0 0 0 0 0 0 0 0 0 0 0 0 0 0 0 0 0 0 0 0 0 0 0 0 0 0 0 0 0 0 0 0 0
Wind_Speed_500mb
24 19 16 12 8 4 4 7 12 15 18 19 20 20 21 22 23 24 26 30 33 37 40 44 46 47 46 44 42 39 38 38 48 57 54 55 51 56 49 53 55 55 57
24 18 14 10 8 5 6 9 13 16 19 21 23 23 24 25 26 28 29 31 36 41 46 48 49 45 46 43 39 42 41 38 46 58 61 55 56 50 58 57 56 57 68
20 17 13 10 9 8 9 12 16 19 21 23 24 26 28 29 30 31 33 36 40 45 49 51 50 49 47 43 41 42 41 39 48 56 63 60 59 56 64 62 57 69 73
20 15 14 14 13 13 14 15 18 21 23 26 27 29 31 32 34 35 36 40 44 47 49 51 50 49 46 48 51 45 40 44 55 50 62 59 61 62 59 61 68 68 76
19 18 18 18 16 16 17 19 21 25 29 30 32 33 35 37 39 38 38 42 46 48 49 50 49 53 55 52 45 47 44 51 51 56 62 66 65 63 67 68 73 80 83
22 21 21 20 19 19 21 23 26 30 33 34 35 35 37 39 40 41 43 45 45 47 50 52 53 52 50 50 40 40 41 49 55 58 63 64 66 69 69 70 74 81 88
22 22 22 21 21 24 25 27 29 32 35 35 36 38 39 42 45 43 43 44 47 51 53 53 52 51 50 45 48 44 42 42 45 54 60 65 72 74 68 83 82 80 80
23 22 21 24 26 27 28 29 31 34 37 39 41 41 42 43 45 44 45 46 49 51 51 51 50 49 47 42 48 51 47 49 50 54 60 69 70 65 69 80 82 88 87
24 22 25 28 29 29 30 30 34 38 39 40 41 43 46 47 49 46 48 47 49 51 51 49 49 50 43 40 46 52 52 57 54 54 58 59 58 64 61 69 72 66 83
24 25 29 31 32 32 33 35 36 38 40 44 46 46 47 48 48 47 47 49 51 51 50 47 46 44 40 42 47 52 65 66 71 72 71 75 73 69 61 53 53 59 64
27 32 35 35 34 33 32 35 39 42 44 45 46 47 48 48 47 46 46 48 50 52 52 51 51 49 42 41 43 57 63 63 71 74 77 77 73 68 60 54 51 56 66
37 36 33 34 35 34 37 40 43 45 45 47 48 49 50 49 47 45 46 47 48 52 51 53 54 48 44 46 51 62 63 65 70 72 72 72 69 62 64 67 64 61 59
37 35 36 40 40 39 42 44 46 46 48 49 50 53 52 52 49 46 46 47 48 50 52 53 45 50 57 61 62 61 60 60 64 68 71 69 66 70 71 72 66 63 64
39 39 41 41 41 43 45 48 50 51 52 52 53 54 53 51 50 48 47 47 48 50 52 53 57 59 60 63 63 61 59 60 63 67 68 68 70 71 69 67 68 68 73
41 41 42 43 44 47 50 53 55 56 56 56 56 56 54 51 48 51 49 44 45 43 55 56 58 58 61 61 61 61 62 62 62 60 62 67 67 68 68 65 65 65 63
42 42 42 44 48 52 55 59 61 62 60 59 57 56 52 48 49 47 45 47 46 40 55 55 55 57 60 62 63 65 64 63 59 60 63 63 66 68 69 66 60 59 62
41 41 44 48 53 57 60 63 64 62 61 59 56 51 49 47 46 48 48 47 48 51 52 52 54 56 59 61 62 64 64 60 60 61 62 63 64 64 63 62 62 63 66
40 45 50 54 58 61 62 62 61 58 58 56 51 46 47 46 45 46 45 45 47 48 49 51 53 55 57 61 63 62 61 62 62 61 61 60 58 59 62 62 63 64 65
45 49 53 56 57 58 60 59 58 56 54 50 49 44 43 42 43 42 42 41 45 46 47 50 52 55 58 61 59 60 62 62 62 61 60 58 57 59 61 61 61 60 61
43 48 52 55 57 59 58 56 53 51 48 47 45 42 42 39 38 37 37 41 43 43 46 50 53 56 58 56 59 62 63 62 59 57 57 57 57 58 60 60 60 61 60
45 53 56 56 56 55 53 50 47 47 44 43 41 40 39 38 36 35 38 40 41 43 48 52 56 57 54 57 60 61 61 60 55 55 56 57 58 59 56 55 56 58 63
50 55 55 53 52 50 47 45 44 42 40 39 38 36 37 35 32 36 38 37 39 44 50 55 56 52 56 59 60 59 58 55 54 55 57 57 57 56 55 54 56 63 67
52 52 51 49 47 45 43 41 40 39 37 36 36 34 31 31 34 36 36 36 40 45 51 54 53 55 55 56 55 55 57 55 54 53 55 56 56 53 51 55 61 66 67
52 51 48 45 42 41 39 38 38 37 35 33 32 31 30 32 34 34 34 37 41 47 50 49 51 54 54 52 52 53 54 51 49 47 49 55 55 48 54 62 67 69 69
52 52 49 43 40 39 39 38 36 34 33 32 30 30 31 32 32 32 35 39 44 47 44 47 49 50 51 50 50 49 45 42 43 45 51 55 56 58 63 69 72 71 68
49 51 48 42 40 39 37 36 35 34 32 30 30 30 30 30 30 32 35 40 45 42 43 45 46 48 49 49 45 42 39 38 42 44 52 59 67 71 73 75 74 74 75
Wind_Direction_500mb
184 187 191 186 192 213 282 330 335 340 336 332 323 318 318 320 323 323 326 328 330 329 329 330 329 325 322 320 317 313 304 301 297 303 310 307 312 314 315 304 315 305 308
189 191 193 196 213 239 290 326 326 330 328 321 316 314 310 311 313 314 318 320 322 323 324 324 323 321 319 316 311 307 303 303 302 306 309 312 312 316 307 313 310 306 310
194 198 203 215 240 266 292 308 316 319 321 316 311 307 305 307 307 307 310 317 320 319 319 321 320 317 315 311 309 304 303 300 299 302 307 312 313 314 312 309 307 307 314
202 212 225 237 252 270 287 301 309 314 317 314 310 306 304 300 301 304 308 310 311 314 318 317 314 311 310 307 304 303 305 296 300 305 306 307 311 309 311 314 310 311 314
213 225 236 246 256 269 284 294 306 315 318 314 308 306 302 300 299 299 303 306 309 312 315 313 312 309 311 309 309 308 305 302 310 308 305 304 308 312 313 315 308 311 315
221 231 244 254 264 276 285 297 309 312 311 307 302 298 296 295 296 301 302 302 308 313 313 313 310 309 308 308 307 301 305 309 306 303 299 303 304 305 313 309 308 313 313
226 242 254 265 276 284 291 298 299 300 300 299 299 299 298 298 297 296 298 306 312 311 310 310 310 308 308 308 305 309 311 305 302 303 298 298 299 308 308 304 306 305 303
234 253 268 277 279 281 283 285 291 297 302 302 299 296 293 295 296 301 303 305 305 307 307 308 306 306 305 303 310 312 311 304 300 297 295 296 303 306 301 298 300 304 304
246 265 273 275 276 280 283 286 294 297 297 295 297 299 300 298 298 300 300 302 302 305 306 306 306 308 311 307 308 305 300 302 297 296 298 299 297 298 298 301 303 305 307
255 272 276 280 282 282 277 278 286 297 300 301 299 297 296 298 297 299 299 300 301 305 307 308 312 307 306 308 307 306 302 301 307 309 306 306 307 308 307 302 303 300 300
261 277 276 273 271 271 277 290 297 298 296 295 297 298 298 298 298 298 298 300 302 303 305 308 307 305 306 306 304 296 301 308 304 308 309 310 312 312 310 303 295 294 295
261 269 279 281 281 280 282 285 287 287 292 298 300 302 302 300 299 298 298 297 298 300 303 305 305 309 304 303 303 310 309 306 308 308 308 311 313 310 308 307 307 303 300
271 280 281 273 268 270 276 280 284 291 295 299 302 303 301 298 299 299 297 296 298 300 302 304 303 303 305 308 310 310 310 311 311 311 313 313 314 313 313 315 315 313 309
271 271 272 270 271 275 279 284 288 293 296 298 299 299 297 294 297 297 297 298 301 305 306 309 310 310 309 311 314 316 317 316 315 314 314 314 315 316 317 319 318 318 315
270 273 271 270 274 279 282 285 290 294 295 296 296 294 292 292 291 294 296 298 303 307 302 308 309 311 312 313 314 316 318 319 317 316 314 315 316 318 320 322 321 320 320
269 272 273 275 277 280 284 288 291 292 292 292 291 292 290 285 284 291 297 297 299 297 300 305 308 312 313 313 315 319 321 321 319 318 318 320 321 321 321 324 326 325 322
274 276 274 275 278 281 284 286 288 290 290 292 293 292 289 287 285 290 295 296 297 302 304 307 309 311 312 314 317 319 320 321 320 321 322 323 322 321 323 326 327 325 323
276 277 277 280 282 285 287 289 289 289 288 290 289 288 286 286 287 291 292 294 298 301 306 309 311 312 314 317 320 321 321 322 323 323 323 322 322 322 325 327 326 325 325
282 284 286 286 287 288 288 288 289 288 289 289 289 287 284 284 285 289 293 297 301 305 307 310 312 315 318 319 320 321 322 323 324 323 324 325 326 325 325 326 326 326 326
293 293 291 290 289 289 291 291 289 288 288 287 285 285 286 284 287 290 294 300 303 306 308 311 315 318 320 321 321 321 322 324 325 324 324 325 325 326 326 325 327 327 328
299 296 292 289 290 292 289 288 288 286 284 281 281 283 283 286 290 292 299 303 305 310 313 315 319 322 323 322 321 321 322 324 326 324 324 325 325 325 325 325 327 330 329
302 298 295 292 290 288 286 285 283 281 279 279 280 280 281 288 291 297 299 303 310 313 315 318 320 323 323 322 322 322 322 325 325 324 325 325 325 325 325 325 327 327 329
304 301 296 291 287 285 284 283 282 280 279 279 279 280 282 288 294 296 300 307 312 315 318 320 321 323 322 322 323 324 324 326 326 326 327 328 327 326 323 323 325 326 328
308 302 293 287 283 282 281 279 277 278 277 276 278 281 284 289 293 297 303 310 313 317 319 319 320 320 322 323 324 324 324 326 326 331 332 332 330 326 323 324 326 327 327
303 297 288 281 280 279 277 276 275 274 274 275 277 278 284 289 293 298 306 311 316 318 318 319 320 321 323 326 326 324 326 327 327 328 326 323 321 321 322 322 325 327 325
299 294 282 273 274 273 273 273 273 272 271 271 273 278 284 288 293 301 308 314 316 316 318 320 322 324 326 327 326 325 327 327 326 325 322 320 319 319 321 322 325 324 322
Wind_Speed_850mb
24 19 16 12 8 4 4 7 12 15 18 19 20 20 21 22 23 24 26 30 33 37 40 44 46 47 46 44 42 39 38 38 48 57 54 55 51 56 49 53 55 55 57
24 18 14 10 8 5 6 9 13 16 19 21 23 23 24 25 26 28 29 31 36 41 46 48 49 45 46 43 39 42 41 38 46 58 61 55 56 50 58 57 56 57 68
20 17 13 10 9 8 9 12 16 19 21 23 24 26 28 29 30 31 33 36 40 45 49 51 50 49 47 43 41 42 41 39 48 56 63 60 59 56 64 62 57 69 73
20 15 14 14 13 13 14 15 18 21 23 26 27 29 31 32 34 35 36 40 44 47 49 51 50 49 46 48 51 45 40 44 55 50 62 59 61 62 59 61 68 68 76
19 18 18 18 16 16 17 19 21 25 29 30 32 33 35 37 39 38 38 42 46 48 49 50 49 53 55 52 45 47 44 51 51 56 62 66 65 63 67 68 73 80 83
22 21 21 20 19 19 21 23 26 30 33 34 35 35 37 39 40 41 43 45 45 47 50 52 53 52 50 50 40 40 41 49 55 58 63 64 66 69 69 70 74 81 88
22 22 22 21 21 24 25 27 29 32 35 35 36 38 39 42 45 43 43 44 47 51 53 53 52 51 50 45 48 44 42 42 45 54 60 65 72 74 68 83 82 80 80
23 22 21 24 26 27 28 29 31 34 37 39 41 41 42 43 45 44 45 46 49 51 51 51 50 49 47 42 48 51 47 49 50 54 60 69 70 65 69 80 82 88 87
24 22 25 28 29 29 30 30 34 38 39 40 41 43 46 47 49 46 48 47 49 51 51 49 49 50 43 40 46 52 52 57 54 54 58 59 58 64 61 69 72 66 83
24 25 29 31 32 32 33 35 36 38 40 44 46 46 47 48 48 47 47 49 51 51 50 47 46 44 40 42 47 52 65 66 71 72 71 75 73 69 61 53 53 59 64
27 32 35 35 34 33 32 35 39 42 44 45 46 47 48 48 47 46 46 48 50 52 52 51 51 49 42 41 43 57 63 63 71 74 77 77 73 68 60 54 51 56 66
37 36 33 34 35 34 37 40 43 45 45 47 48 49 50 49 47 45 46 47 48 52 51 53 54 48 44 46 51 62 63 65 70 72 72 72 69 62 64 67 64 61 59
37 35 36 40 40 39 42 44 46 46 48 49 50 53 52 52 49 46 46 47 48 50 52 53 45 50 57 61 62 61 60 60 64 68 71 69 66 70 71 72 66 63 64
39 39 41 41 41 43 45 48 50 51 52 52 53 54 53 51 50 48 47 47 48 50 52 53 57 59 60 63 63 61 59 60 63 67 68 68 70 71 69 67 68 68 73
41 41 42 43 44 47 50 53 55 56 56 56 56 56 54 51 48 51 49 44 45 43 55 56 58 58 61 61 61 61 62 62 62 60 62 67 67 68 68 65 65 65 63
42 42 42 44 48 52 55 59 61 62 60 59 57 56 52 48 49 47 45 47 46 40 55 55 55 57 60 62 63 65 64 63 59 60 63 63 66 68 69 66 60 59 62
41 41 44 48 53 57 60 63 64 62 61 59 56 51 49 47 46 48 48 47 48 51 52 52 54 56 59 61 62 64 64 60 60 61 62 63 64 64 63 62 62 63 66
40 45 50 54 58 61 62 62 61 58 58 56 51 46 47 46 45 46 45 45 47 48 49 51 53 55 57 61 63 62 61 62 62 61 61 60 58 59 62 62 63 64 65
45 49 53 56 57 58 60 59 58 56 54 50 49 44 43 42 43 42 42 41 45 46 47 50 52 55 58 61 59 60 62 62 62 61 60 58 57 59 61 61 61 60 61
43 48 52 55 57 59 58 56 53 51 48 47 45 42 42 39 38 37 37 41 43 43 46 50 53 56 58 56 59 62 63 62 59 57 57 57 57 58 60 60 60 61 60
45 53 56 56 56 55 53 50 47 47 44 43 41 40 39 38 36 35 38 40 41 43 48 52 56 57 54 57 60 61 61 60 55 55 56 57 58 59 56 55 56 58 63
50 55 55 53 52 50 47 45 44 42 40 39 38 36 37 35 32 36 38 37 39 44 50 55 56 52 56 59 60 59 58 55 54 55 57 57 57 56 55 54 56 63 67
52 52 51 49 47 45 43 41 40 39 37 36 36 34 31 31 34 36 36 36 40 45 51 54 53 55 55 56 55 55 57 55 54 53 55 56 56 53 51 55 61 66 67
52 51 48 45 42 41 39 38 38 37 35 33 32 31 30 32 34 34 34 37 41 47 50 49 51 54 54 52 52 53 54 51 49 47 49 55 55 48 54 62 67 69 69
52 52 49 43 40 39 39 38 36 34 33 32 30 30 31 32 32 32 35 39 44 47 44 47 49 50 51 50 50 49 45 42 43 45 51 55 56 58 63 69 72 71 68
49 51 48 42 40 39 37 36 35 34 32 30 30 30 30 30 30 32 35 40 45 42 43 45 46 48 49 49 45 42 39 38 42 44 52 59 67 71 73 75 74 74 75
Wind_Direction_850mb
184 187 191 186 192 213 282 330 335 340 336 332 323 318 318 320 323 323 326 328 330 329 329 330 329 325 322 320 317 313 304 301 297 303 310 307 312 314 315 304 315 305 308
189 191 193 196 213 239 290 326 326 330 328 321 316 314 310 311 313 314 318 320 322 323 324 324 323 321 319 316 311 307 303 303 302 306 309 312 312 316 307 313 310 306 310
194 198 203 215 240 266 292 308 316 319 321 316 311 307 305 307 307 307 310 317 320 319 319 321 320 317 315 311 309 304 303 300 299 302 307 312 313 314 312 309 307 307 314
202 212 225 237 252 270 287 301 309 314 317 314 310 306 304 300 301 304 308 310 311 314 318 317 314 311 310 307 304 303 305 296 300 305 306 307 311 309 311 314 310 311 314
213 225 236 246 256 269 284 294 306 315 318 314 308 306 302 300 299 299 303 306 309 312 315 313 312 309 311 309 309 308 305 302 310 308 305 304 308 312 313 315 308 311 315
221 231 244 254 264 276 285 297 309 312 311 307 302 298 296 295 296 301 302 302 308 313 313 313 310 309 308 308 307 301 305 309 306 303 299 303 304 305 313 309 308 313 313
226 242 254 265 276 284 291 298 299 300 300 299 299 299 298 298 297 296 298 306 312 311 310 310 310 308 308 308 305 309 311 305 302 303 298 298 299 308 308 304 306 305 303
234 253 268 277 279 281 283 285 291 297 302 302 299 296 293 295 296 301 303 305 305 307 307 308 306 306 305 303 310 312 311 304 300 297 295 296 303 306 301 298 300 304 304
246 265 273 275 276 280 283 286 294 297 297 295 297 299 300 298 298 300 300 302 302 305 306 306 306 308 311 307 308 305 300 302 297 296 298 299 297 298 298 301 303 305 307
255 272 276 280 282 282 277 278 286 297 300 301 299 297 296 298 297 299 299 300 301 305 307 308 312 307 306 308 307 306 302 301 307 309 306 306 307 308 307 302 303 300 300
261 277 276 273 271 271 277 290 297 298 296 295 297 298 298 298 298 298 298 300 302 303 305 308 307 305 306 306 304 296 301 308 304 308 309 310 312 312 310 303 295 294 295
261 269 279 281 281 280 282 285 287 287 292 298 300 302 302 300 299 298 298 297 298 300 303 305 305 309 304 303 303 310 309 306 308 308 308 311 313 310 308 307 307 303 300
271 280 281 273 268 270 276 280 284 291 295 299 302 303 301 298 299 299 297 296 298 300 302 304 303 303 305 308 310 310 310 311 311 311 313 313 314 313 313 315 315 313 309
271 271 272 270 271 275 279 284 288 293 296 298 299 299 297 294 297 297 297 298 301 305 306 309 310 310 309 311 314 316 317 316 315 314 314 314 315 316 317 319 318 318 315
270 273 271 270 274 279 282 285 290 294 295 296 296 294 292 292 291 294 296 298 303 307 302 308 309 311 312 313 314 316 318 319 317 316 314 315 316 318 320 322 321 320 320
269 272 273 275 277 280 284 288 291 292 292 292 291 292 290 285 284 291 297 297 299 297 300 305 308 312 313 313 315 319 321 321 319 318 318 320 321 321 321 324 326 325 322
274 276 274 275 278 281 284 286 288 290 290 292 293 292 289 287 285 290 295 296 297 302 304 307 309 311 312 314 317 319 320 321 320 321 322 323 322 321 323 326 327 325 323
276 277 277 280 282 285 287 289 289 289 288 290 289 288 286 286 287 291 292 294 298 301 306 309 311 312 314 317 320 321 321 322 323 323 323 322 322 322 325 327 326 325 325
282 284 286 286 287 288 288 288 289 288 289 289 289 287 284 284 285 289 293 297 301 305 307 310 312 315 318 319 320 321 322 323 324 323 324 325 326 325 325 326 326 326 326
293 293 291 290 289 289 291 291 289 288 288 287 285 285 286 284 287 290 294 300 303 306 308 311 315 318 320 321 321 321 322 324 325 324 324 325 325 326 326 325 327 327 328
299 296 292 289 290 292 289 288 288 286 284 281 281 283 283 286 290 292 299 303 305 310 313 315 319 322 323 322 321 321 322 324 326 324 324 325 325 325 325 325 327 330 329
302 298 295 292 290 288 286 285 283 281 279 279 280 280 281 288 291 297 299 303 310 313 315 318 320 323 323 322 322 322 322 325 325 324 325 325 325 325 325 325 327 327 329
304 301 296 291 287 285 284 283 282 280 279 279 279 280 282 288 294 296 300 307 312 315 318 320 321 323 322 322 323 324 324 326 326 326 327 328 327 326 323 323 325 326 328
308 302 293 287 283 282 281 279 277 278 277 276 278 281 284 289 293 297 303 310 313 317 319 319 320 320 322 323 324 324 324 326 326 331 332 332 330 326 323 324 326 327 327
303 297 288 281 280 279 277 276 275 274 274 275 277 278 284 289 293 298 306 311 316 318 318 319 320 321 323 326 326 324 326 327 327 328 326 323 321 321 322 322 325 327 325
299 294 282 273 274 273 273 273 273 272 271 271 273 278 284 288 293 301 308 314 316 316 318 320 322 324 326 327 326 325 327 327 326 325 322 320 319 319 321 322 325 324 322